Voltar ao catálogo

STARLINK-36581

AtivoComunicaçõesSSO
NORAD 67543·PAYLOAD·🇺🇸 United States

Lançado Jan 22, 2026 de Vandenberg Space Force Base

Loading…

Próximas Passagens (próximas 24 horas)

TLE

AtualizadoSource: CelesTrak SupGP

Época: Sep 14, 2026, 22:47 UTC

1 67543C 26014M   26257.94979167  .00025800  00000+0  80113-3 0  2579
2 67543  97.2846 143.3930 0001722  92.6807  48.6179 15.33416419    13

Acompanhe STARLINK-36581 em tempo real com AllMySat

Download on the App Store